Content
SEND FEEDBACK

Daily
Averages
Monthly
Summary
United States of America

RIMROCK, ARIZONA


Home > North America > United States > Arizona
Elevation: 3830 feet     Latitude: 34 40N     Longitude: 111 43W

WEATHER
 
SELECT A DAY
Number of Records: 140,135;   Date Range: 1/4/95 - 11/25/14
 
SHARE

PRINT THIS DATA

[ ← Previous Day ]
WEATHER ALMANAC - AUGUST 25, 2014
[ Next Day → ]
[ °C ]   °F
Weather ElementAverageHighLow
Temperature73.4 °F84.2 °F (9:55 am)68 °F (2:55 am)
Dewpoint51.2 °F55.4 °F (5:55 pm)44.6 °F (7:15 pm)
Humidity46.1 %60 % (6:15 pm)33 % (12:55 am)
Barometer30.12 in30.17 in (1:15 pm)30.08 in (3:55 pm)
Wind Speed4.8 mph15 mph (2:15 pm)
Wind Gust19.6 mph (3:35 pm)
Weather ElementAverage
Visibility10 mi
Wind DirectionSSE (144.1 °)

Weather ElementTotal
Precipitation---
Cooling Degree Days11.1 (Base 65)
Growing Degree Days26.1 (Base 50)
Averaged from 69 records on August 25, 2014
WEATHER CONDITIONS BREAKOUT
WIND DIRECTION BREAKOUT
WEATHER BY HOUR - AUGUST 25, 2014
[ °C ]   °F
Local TimeTemperatureDewpointHumidityBarometerVisibilityWind DirectionWind SpeedGust SpeedPrecipitationEventsConditions
12:15 AM71.6 °F50.0 °F46 %30.10 in10.0 miCalmClear
12:35 AM71.6 °F50.0 °F46 %30.09 in10.0 miCalmClear
12:55 AM69.8 °F50.0 °F49 %30.09 in10.0 miCalmClear
1:15 AM71.6 °F50.0 °F46 %30.09 in10.0 miCalmClear
1:35 AM71.6 °F50.0 °F46 %30.09 in10.0 miCalmClear
1:55 AM71.6 °F50.0 °F46 %30.09 in10.0 miCalmClear
2:15 AM71.6 °F50.0 °F46 %30.09 in10.0 miCalmClear
2:35 AM69.8 °F50.0 °F49 %30.08 in10.0 miCalmClear
2:55 AM69.8 °F50.0 °F49 %30.09 in10.0 miCalmClear
3:15 AM69.8 °F50.0 °F49 %30.08 in10.0 miCalmClear
3:35 AM69.8 °F50.0 °F49 %30.08 in10.0 miCalmClear
3:55 AM68.0 °F50.0 °F52 %30.09 in10.0 miCalmMostly Cloudy
4:15 AM68.0 °F50.0 °F52 %30.09 in10.0 miSouth (180°)3.5 mphMostly Cloudy
4:35 AM68.0 °F50.0 °F52 %30.10 in10.0 miCalmScattered Clouds
4:55 AM68.0 °F50.0 °F52 %30.10 in10.0 miSouth (170°)4.6 mphScattered Clouds
5:15 AM68.0 °F50.0 °F52 %30.10 in10.0 miSouth (170°)3.5 mphScattered Clouds
5:35 AM68.0 °F50.0 °F52 %30.11 in10.0 miSSE (160°)8.1 mphScattered Clouds
5:55 AM68.0 °F50.0 °F52 %30.11 in10.0 miSSE (160°)11.5 mphMostly Cloudy
6:15 AM68.0 °F50.0 °F52 %30.13 in10.0 miSouth (170°)11.5 mphScattered Clouds
6:55 AM68.0 °F51.8 °F56 %30.14 in10.0 miSSE (160°)9.2 mphClear
7:35 AM68.0 °F51.8 °F56 %30.16 in10.0 miWSW (240°)5.8 mphClear
7:55 AM68.0 °F51.8 °F56 %30.16 in10.0 miSSW (210°)4.6 mphClear
8:15 AM68.0 °F51.8 °F56 %30.16 in10.0 miSouth (180°)4.6 mphClear
8:35 AM68.0 °F53.6 °F60 %30.16 in10.0 miSouth (190°)5.8 mphClear
8:55 AM69.8 °F53.6 °F56 %30.16 in10.0 miSE (130°)4.6 mphClear
9:15 AM69.8 °F51.8 °F53 %30.16 in10.0 miSouth (170°)6.9 mphClear
9:35 AM71.6 °F51.8 °F50 %30.17 in10.0 miSouth (170°)6.9 mphClear
9:55 AM71.6 °F53.6 °F53 %30.17 in10.0 miSSW (200°)4.6 mphClear
10:15 AM73.4 °F53.6 °F50 %30.17 in10.0 miSSE (150°)6.9 mphClear
10:35 AM73.4 °F53.6 °F50 %30.17 in10.0 miSW (220°)4.6 mphClear
10:55 AM75.2 °F53.6 °F47 %30.17 in10.0 miSSE (150°)6.9 mphClear
11:15 AM77.0 °F53.6 °F44 %30.16 in10.0 miESE (110°)5.8 mphClear
11:35 AM75.2 °F51.8 °F44 %30.16 in10.0 miCalmClear
11:55 AM80.6 °F53.6 °F39 %30.16 in10.0 miCalmClear
12:15 PM78.8 °F53.6 °F42 %30.15 in10.0 miSE (140°)4.6 mphClear
12:35 PM80.6 °F53.6 °F39 %30.15 in10.0 miSSE (150°)6.9 mph16.1 mphScattered Clouds
12:55 PM82.4 °F53.6 °F37 %30.14 in10.0 miSouth (180°)12.7 mph17.3 mphScattered Clouds
1:15 PM80.6 °F53.6 °F39 %30.14 in10.0 miSSE (150°)5.8 mphMostly Cloudy
1:35 PM82.4 °F53.6 °F37 %30.14 in10.0 miSSW (200°)10.4 mphMostly Cloudy
1:55 PM84.2 °F51.8 °F33 %30.12 in10.0 miSW (220°)6.9 mph16.1 mphMostly Cloudy
2:15 PM80.6 °F51.8 °F37 %30.12 in10.0 miSW (220°)11.5 mph16.1 mphMostly Cloudy
2:35 PM80.6 °F51.8 °F37 %30.11 in10.0 miSouth (190°)9.2 mph17.3 mphScattered Clouds
2:55 PM80.6 °F51.8 °F37 %30.11 in10.0 miSSW (210°)6.9 mphClear
3:15 PM82.4 °F51.8 °F35 %30.10 in10.0 miWSW (250°)6.9 mphClear
3:35 PM80.6 °F51.8 °F37 %30.10 in10.0 miWest (270°)8.1 mphScattered Clouds
3:55 PM78.8 °F51.8 °F39 %30.10 in10.0 miSW (230°)4.6 mphScattered Clouds
4:15 PM78.8 °F51.8 °F39 %30.10 in10.0 miWest (260°)6.9 mphClear
4:35 PM78.8 °F51.8 °F39 %30.10 in10.0 miWSW (240°)4.6 mphClear
4:55 PM78.8 °F53.6 °F42 %30.10 in10.0 miWNW (300°)6.9 mphClear
5:15 PM77.0 °F55.4 °F47 %30.10 in10.0 miNW (310°)8.1 mphScattered Clouds
5:35 PM77.0 °F55.4 °F47 %30.11 in10.0 miNW (310°)15.0 mphScattered Clouds
5:55 PM77.0 °F53.6 °F44 %30.11 in10.0 miNW (320°)9.2 mphThunderstormScattered Clouds
6:15 PM75.2 °F50.0 °F41 %30.10 in10.0 miNW (320°)12.7 mph19.6 mphScattered Clouds
6:35 PM75.2 °F44.6 °F34 %30.10 in10.0 miNNW (340°)8.1 mphMostly Cloudy
6:55 PM73.4 °F48.2 °F41 %30.09 in10.0 miESE (120°)5.8 mphScattered Clouds
7:15 PM73.4 °F50.0 °F44 %30.08 in10.0 miEast (100°)4.6 mphClear
7:35 PM73.4 °F48.2 °F41 %30.09 in10.0 miWest (260°)3.5 mphClear
7:55 PM73.4 °F48.2 °F41 %30.10 in10.0 miWNW (300°)8.1 mphClear
8:15 PM71.6 °F50.0 °F46 %30.11 in10.0 miNW (320°)3.5 mphClear
8:35 PM71.6 °F46.4 °F41 %30.13 in10.0 miCalmClear
9:15 PM71.6 °F50.0 °F46 %30.14 in10.0 miWest (280°)3.5 mphScattered Clouds
9:35 PM71.6 °F50.0 °F46 %30.13 in10.0 miCalmClear
9:55 PM69.8 °F51.8 °F53 %30.15 in10.0 miCalmClear
10:15 PM71.6 °F50.0 °F46 %30.15 in10.0 miCalmThunderstormClear
10:35 PM69.8 °F51.8 °F53 %30.14 in10.0 miNorth (350°)6.9 mphClear
10:55 PM69.8 °F50.0 °F49 %30.15 in10.0 miNE (50°)4.6 mphClear
11:15 PM69.8 °F50.0 °F49 %30.15 in10.0 miENE (60°)4.6 mphClear
11:35 PM71.6 °F50.0 °F46 %30.16 in10.0 miCalmClear
11:55 PM69.8 °F50.0 °F49 %30.16 in10.0 miCalmClear
Hourly data recorded from KSEZ, located miles away from Rimrock, Arizona







STORIES FROM OUR PARTNERS